Weather History for Cape Girardeau, MO

Change the Weather History Date:

Monday, February 18, 2013

  Actual Average Record
Temperature  
Mean Temperature 46 °F 39 °F  
Max Temperature 54 °F 49 °F 73 °F (1961)
Min Temperature 38 °F 29 °F -2 °F (1993)
Degree Days  
Heating Degree Days 19 26  
Month to date heating degree days 457 514  
Since 1 July heating degree days 2956 3252  
Cooling Degree Days 0 0  
Month to date cooling degree days 0 0  
Year to date cooling degree days 0 0  
Moisture  
Dew Point 43 °F    
Average Humidity 76    
Maximum Humidity 93    
Minimum Humidity 59    
Precipitation  
Precipitation 0.69 in 0.11 in 0.80 in (2000)
Month to date precipitation 1.40 2.21  
Year to date precipitation 4.98 5.68  
Sea Level Pressure  
Sea Level Pressure 29.80 in    
Wind  
Wind Speed 18 mph (South)    
Max Wind Speed 30 mph    
Max Gust Speed 40 mph    
Visibility 7 miles    
Events Rain , Thunderstorm    
T = Trace of Precipitation, MM = Missing Value Source: NWS Daily Summary

Daily Weather History Graph

Daily Weather History Graph

Search for Another Location

Airport:

Trip Planner

Search our weather history database for the weather conditions in past years. The results will help you decide how hot, cold, wet, or windy it might be!

Date:

Astronomy

Feb. 18, 2013 Rise Set
Actual Time 6:43 AM CST 5:41 PM CST
Civil Twilight 6:16 AM CST 6:08 PM CST
Nautical Twilight 5:46 AM CST 6:38 PM CST
Astronomical Twilight 5:16 AM CST 7:08 PM CST
Moon 11:31 AM CST (2/18) 1:19 AM CST (2/18)
Length of Visible Light 11h 51m
Length of Day
10h 58m
First Quarter, 58% of the Moon is Illuminated
Feb 18
First Quarter
Feb 25
Full
Mar 4
Last Quarter
Mar 11
New
Mar 19
First Quarter

Hourly Weather History & Observations

Time (CST) Temp. Windchill Dew Point Humidity Pressure Visibility Wind Dir Wind Speed Gust Speed Precip Events Conditions
12:53 AM 39.0 °F 32.8 °F 27.0 °F 62% 30.01 in 10.0 mi SSE 9.2 mph - N/A   Clear
1:53 AM 39.9 °F 34.5 °F 28.0 °F 63% 30.00 in 10.0 mi South 8.1 mph - N/A   Clear
2:53 AM 41.0 °F 35.8 °F 30.0 °F 65% 29.99 in 10.0 mi South 8.1 mph - N/A   Clear
3:53 AM 45.0 °F 38.2 °F 32.0 °F 60% 29.98 in 10.0 mi South 15.0 mph - N/A   Clear
4:53 AM 45.0 °F 38.5 °F 35.1 °F 68% 29.98 in 10.0 mi South 13.8 mph 23.0 mph N/A   Clear
5:53 AM 45.0 °F 37.9 °F 37.0 °F 74% 29.97 in 10.0 mi South 16.1 mph 25.3 mph N/A   Clear
6:53 AM 44.1 °F 35.9 °F 37.9 °F 79% 29.97 in 10.0 mi South 19.6 mph - N/A   Clear
7:53 AM 46.4 °F 39.0 °F 39.2 °F 76% 29.97 in 10.0 mi South 19.6 mph 26.5 mph N/A   Clear
8:53 AM 48.9 °F - 39.9 °F 71% 29.96 in 10.0 mi South 18.4 mph 36.8 mph N/A   Mostly Cloudy
9:53 AM 52.0 °F - 42.1 °F 69% 29.94 in 10.0 mi South 19.6 mph 28.8 mph N/A   Overcast
10:53 AM 53.1 °F - 42.1 °F 66% 29.92 in 10.0 mi South 21.9 mph 33.4 mph N/A   Overcast
11:53 AM 53.1 °F - 43.0 °F 69% 29.88 in 10.0 mi South 26.5 mph 36.8 mph N/A   Overcast
12:53 PM 51.1 °F - 45.0 °F 80% 29.86 in 7.0 mi South 19.6 mph 27.6 mph 0.02 in Rain Light Rain
1:53 PM 50.0 °F - 46.0 °F 86% 29.81 in 4.0 mi South 18.4 mph 24.2 mph 0.06 in Rain Rain
2:03 PM 50.0 °F - 46.4 °F 87% 29.80 in 2.5 mi South 20.7 mph 29.9 mph 0.04 in Rain Heavy Rain
2:11 PM 50.0 °F - 46.4 °F 87% 29.80 in 8.0 mi South 18.4 mph - 0.04 in Rain Light Rain
2:24 PM 50.0 °F - 46.4 °F 87% 29.79 in 10.0 mi South 15.0 mph 26.5 mph 0.04 in   Overcast
2:53 PM 51.1 °F - 46.0 °F 83% 29.78 in 10.0 mi South 19.6 mph 28.8 mph 0.04 in   Overcast
3:42 PM 51.8 °F - 46.4 °F 82% 29.74 in 7.0 mi South 21.9 mph 28.8 mph 0.06 in Rain , Thunderstorm Light Rain
3:53 PM 50.0 °F - 46.9 °F 89% 29.73 in 3.0 mi South 19.6 mph 29.9 mph 0.08 in Rain Rain
4:01 PM 50.0 °F - 46.4 °F 87% 29.71 in 3.0 mi South 23.0 mph 29.9 mph 0.01 in Rain , Thunderstorm Rain
4:11 PM 50.0 °F - 46.4 °F 87% 29.72 in 1.8 mi South 23.0 mph 32.2 mph 0.07 in Rain , Thunderstorm Heavy Thunderstorms and Rain
4:20 PM 50.0 °F - 48.2 °F 94% 29.72 in 2.0 mi South 17.3 mph 29.9 mph 0.10 in Rain , Thunderstorm Thunderstorms and Rain
4:25 PM 50.0 °F - 48.2 °F 94% 29.72 in 6.0 mi South 16.1 mph 23.0 mph 0.10 in Rain , Thunderstorm Light Rain
4:37 PM 50.0 °F - 48.2 °F 94% 29.70 in 8.0 mi SSE 19.6 mph 25.3 mph 0.10 in Rain , Thunderstorm Light Rain
4:44 PM 50.0 °F - 48.2 °F 94% 29.70 in 4.0 mi SSE 18.4 mph - 0.11 in Rain Light Rain
4:53 PM 50.0 °F - 48.0 °F 93% 29.70 in 6.0 mi South 17.3 mph 29.9 mph 0.12 in Rain Light Rain
5:14 PM 50.0 °F - 48.2 °F 94% 29.69 in 6.0 mi South 9.2 mph 18.4 mph 0.03 in Rain Rain
5:39 PM 51.8 °F - 46.4 °F 82% 29.68 in 10.0 mi South 21.9 mph 29.9 mph 0.03 in   Overcast
5:53 PM 51.1 °F - 48.0 °F 89% 29.68 in 10.0 mi South 20.7 mph 25.3 mph 0.03 in Rain Light Rain
6:33 PM 51.8 °F - 48.2 °F 88% 29.66 in 9.0 mi South 21.9 mph 28.8 mph 0.00 in Rain Light Rain
6:41 PM 51.8 °F - 48.2 °F 88% 29.66 in 10.0 mi South 20.7 mph 29.9 mph 0.00 in   Overcast
6:53 PM 51.1 °F - 48.0 °F 89% 29.65 in 3.0 mi South 20.7 mph 32.2 mph 0.04 in Rain Heavy Rain
7:06 PM 51.8 °F - 48.2 °F 88% 29.73 in 2.0 mi West 27.6 mph 35.7 mph N/A Rain , Thunderstorm Rain
7:13 PM 50.0 °F - 48.2 °F 94% 29.73 in 1.2 mi West 15.0 mph 35.7 mph 0.23 in Rain , Thunderstorm Heavy Rain
7:19 PM 50.0 °F - 48.2 °F 94% 29.72 in 3.0 mi WSW 10.4 mph - 0.26 in Rain , Thunderstorm Rain
7:26 PM 50.0 °F - 48.2 °F 94% 29.71 in 4.0 mi SSW 9.2 mph - 0.28 in Rain , Thunderstorm Rain
7:34 PM 50.0 °F - 46.4 °F 87% 29.66 in 6.0 mi SSE 10.4 mph - 0.29 in Rain Light Rain
7:53 PM 50.0 °F - 46.0 °F 86% 29.67 in 10.0 mi South 13.8 mph - 0.30 in   Overcast
8:53 PM 48.0 °F - 45.0 °F 89% 29.72 in 10.0 mi SSW 18.4 mph - N/A   Overcast
9:36 PM 46.4 °F 37.4 °F 42.8 °F 87% 29.78 in 10.0 mi WNW 28.8 mph 36.8 mph N/A   Overcast
9:53 PM 46.0 °F 37.2 °F 39.9 °F 79% 29.80 in 10.0 mi WNW 26.5 mph 33.4 mph N/A   Overcast
10:53 PM 43.0 °F 35.7 °F 37.9 °F 82% 29.86 in 10.0 mi NW 15.0 mph 25.3 mph N/A   Overcast
11:53 PM 43.0 °F 35.7 °F 36.0 °F 76% 29.90 in 10.0 mi WNW 15.0 mph - N/A   Overcast